Location: Newark
(43.9494°N, 6.8108°E)
Time: 11:34:26
(UTC+00:00)

A-11 Canister half - Pass Details

Date: 23 October 2019
Orbit: 1514 x 1686 km, 47.2° (Epoch: 12 November)

Event Time Altitude Azimuth Distance (km) Brightness Sun altitude
Rises 00:33:29 0° 227° (SW) 4,918 - -53.4°
Reaches altitude 10° 00:36:42 10° 225° (SW) 3,920 - -53.1°
Maximum altitude 00:46:34 64° 147° (SSE) 1,786 - -52.0°
Exits shadow 00:52:11 28° 76° (ENE) 2,668 10.4 -51.4°
Drops below altitude 10° 00:56:07 10° 69° (ENE) 3,809 11.4 -51.0°
Sets 00:59:11 0° 66° (ENE) 4,773 12.1 -50.6°
